Regional Weather Roundup
Issued by NWS State College, PA

Home | Current Version | Previous Version | Text Only | Print | Product List | Glossary On
Versions: 1 2 3 4 5 6 7 8 9 10 11 12 13 14 15 16 17 18 19 20 21 22 23 24 25 26 27 28 29 30 31 32 33 34 35 36 37 38 39 40 41 42 43 44 45 46 47 48 49 50
000
ASUS41 KCTP 031603
RWRCTP

REGIONAL WEATHER ROUNDUP
NATIONAL WEATHER SERVICE STATE COLLEGE PA
1200 PM EDT SUN MAY 03 2015

Note: "fair" indicates few or no clouds below 12,000 feet with no
significant weather and/or obstructions to visibility.

* = STATION THAT DOES NOT REPORT PRECIPITATION /E.G. RAIN...SNOW...ETC/
    THUNDER OR FOG.

PAZ002>004-007>009-013>016-020>023-029>032-031700-
WESTERN PENNSYLVANIA

CITY           SKY/WX    TMP DP  RH WIND       PRES   REMARKS
ERIE           SUNNY     71  39  31 W8        30.10S
MEADVILLE      MOSUNNY   69  37  30 NW10      30.12S
FRANKLIN*      MOSUNNY   72  39  30 W10       30.14S
NEW CASTLE     FAIR      72  42  33 W9        30.13S
BEAVER COUNTY  NOT AVBL
BUTLER*        MOSUNNY   72  43  35 W8G17     30.16R
PITTSBURGH INT MOSUNNY   72  41  32 W10       30.14S
PITTSBURGH     MOSUNNY   72  38  29 NW9       30.13F
INDIANA*       SUNNY     70  45  40 W6        30.18S
LATROBE        SUNNY     70  46  43 SW12      30.17S
WASHINGTON CO* MOSUNNY   72  43  35 W10       30.17S
$$

PAZ004>006-010>012-017>019-024>028-033>037-041-042-045-046-049>053-031700-
CENTRAL PENNSYLVANIA

CITY           SKY/WX    TMP DP  RH WIND       PRES   REMARKS
BRADFORD       PTSUNNY   69  35  28 W9        30.13S
DUBOIS         SUNNY     73  37  27 W12G17    30.13S
CLEARFIELD     PTSUNNY   70  35  27 W9        30.13S
JOHNSTOWN      MOSUNNY   68  38  33 NW9G17    30.16S
ALTOONA        CLOUDY    70  36  28 NW7       30.14S
STATE COLLEGE  MOSUNNY   72  39  30 SW7       30.12S
WILLIAMSPORT   SUNNY     74  33  22 SW6       30.10F
SELINSGROVE    SUNNY     73  47  39 CALM      30.11F
FT INDIANTOWN  SUNNY     76  37  23 W14G23    30.10F
CAPITAL CITY   SUNNY     75  39  27 VRB7      30.11F
HARRISBURG     MOSUNNY   75  36  24 NW5       30.11S
YORK           SUNNY     74  39  28 CALM      30.12S
$$

PAZ038>040-043-044-047-048-054-055-060>062-067>071-031700-
EASTERN PENNSYLVANIA

CITY           SKY/WX    TMP DP  RH WIND       PRES   REMARKS
SCRANTON       SUNNY     74  37  26 VRB3      30.10F
MOUNT POCONO   SUNNY     70  30  22 NW14      30.12S
ALLENTOWN      SUNNY     74  38  27 VRB3      30.10S
QUAKERTOWN*    SUNNY     73  39  29 NW7       30.12R
READING        SUNNY     75  39  27 W7        30.10F
LANCASTER      SUNNY     73  40  30 CALM      30.11S
COATESVILLE    SUNNY     73  41  31 NW3       30.13R
POTTSTOWN      SUNNY     73  43  33 VRB5      30.12S
BLUE BELL      SUNNY     73  43  33 CALM      30.10S
DOYLESTOWN     SUNNY     73  41  31 VRB3      30.10S
WILLOW GROVE   NOT AVBL
NORTH PHILA    SUNNY     73  42  32 E5        30.12S
PHILADELPHIA   MOSUNNY   72  45  37 SE6       30.11S
$$


USA.gov is the U.S. government's official web portal to all federal, state and local government web resources and services.